Station Historical Data
Daily Summary for December 26, 2017 Units:  English    Metric   Both
« Previous Day
Next Day »
Daily Weekly Monthly Yearly Custom
  High: Low: Average:
Temperature: 13.7 °F 5.1 °F 9.1 °F
Dew Point: 4.5 °F -3.2 °F 0.1 °F
Humidity: 71% 57% 66%
Wind Speed: 17.0mph 2.0mph 7.7mph
Wind Gust: 26.0mph - -
Wind- - West
Pressure: 30.51 in 30.23 in -
Precipitation: 0.00 in    
Historical Graphs
 
 
Tabular Data for December 26, 2017
Time Temperature Dew Point Pressure Wind Wind Speed Wind Gust Humidity Rainfall Rate (Hourly)
00:04 12.1 °F 4.5 °F 30.23 in West 8.0 mph 14.0 mph 71% 0.00 in
00:09 12.0 °F 4.4 °F 30.23 in West 8.0 mph 18.0 mph 71% 0.00 in
00:14 11.9 °F 4.3 °F 30.24 in WNW 8.0 mph 15.0 mph 71% 0.00 in
00:19 11.8 °F 4.2 °F 30.24 in West 7.0 mph 19.0 mph 71% 0.00 in
00:24 11.7 °F 3.8 °F 30.25 in West 8.0 mph 19.0 mph 70% 0.00 in
00:29 11.7 °F 3.8 °F 30.24 in West 10.0 mph 19.0 mph 70% 0.00 in
00:34 11.6 °F 3.7 °F 30.25 in West 9.0 mph 19.0 mph 70% 0.00 in
00:39 11.5 °F 3.6 °F 30.25 in West 8.0 mph 18.0 mph 70% 0.00 in
00:44 11.4 °F 3.5 °F 30.25 in NW 7.0 mph 18.0 mph 70% 0.00 in
00:49 11.3 °F 3.1 °F 30.25 in WNW 5.0 mph 25.0 mph 69% 0.00 in
00:54 11.1 °F 3.2 °F 30.25 in NW 9.0 mph 16.0 mph 70% 0.00 in
00:59 11.0 °F 2.8 °F 30.25 in West 10.0 mph 21.0 mph 69% 0.00 in
01:04 10.9 °F 2.7 °F 30.25 in West 10.0 mph 21.0 mph 69% 0.00 in
01:09 10.8 °F 2.6 °F 30.25 in WSW 8.0 mph 19.0 mph 69% 0.00 in
01:14 10.6 °F 2.4 °F 30.26 in West 10.0 mph 16.0 mph 69% 0.00 in
01:19 10.5 °F 2.3 °F 30.26 in West 13.0 mph 14.0 mph 69% 0.00 in
01:24 10.3 °F 2.1 °F 30.26 in West 7.0 mph 16.0 mph 69% 0.00 in
01:29 10.1 °F 1.9 °F 30.26 in WNW 10.0 mph 19.0 mph 69% 0.00 in
01:34 10.1 °F 1.9 °F 30.26 in WNW 8.0 mph 20.0 mph 69% 0.00 in
01:39 10.0 °F 1.9 °F 30.26 in West 9.0 mph 20.0 mph 69% 0.00 in
01:44 9.9 °F 1.8 °F 30.26 in WNW 9.0 mph 18.0 mph 69% 0.00 in
01:49 9.9 °F 1.8 °F 30.26 in WNW 10.0 mph 18.0 mph 69% 0.00 in
01:59 10.0 °F 1.9 °F 30.27 in WNW 11.0 mph 23.0 mph 69% 0.00 in
02:04 9.9 °F 1.8 °F 30.27 in NW 6.0 mph 18.0 mph 69% 0.00 in
02:09 9.9 °F 2.1 °F 30.28 in West 9.0 mph 18.0 mph 70% 0.00 in
02:14 9.9 °F 2.1 °F 30.29 in West 8.0 mph 17.0 mph 70% 0.00 in
02:19 9.8 °F 2.0 °F 30.29 in West 7.0 mph 16.0 mph 70% 0.00 in
02:24 9.7 °F 1.9 °F 30.29 in WSW 4.0 mph 13.0 mph 70% 0.00 in
02:29 9.6 °F 1.8 °F 30.30 in WNW 4.0 mph 17.0 mph 70% 0.00 in
02:34 9.5 °F 1.4 °F 30.30 in WSW 3.0 mph 16.0 mph 69% 0.00 in
02:39 9.5 °F 1.7 °F 30.31 in SW 5.0 mph 14.0 mph 70% 0.00 in
02:44 9.4 °F 1.3 °F 30.30 in West 7.0 mph 15.0 mph 69% 0.00 in
02:49 9.3 °F 1.2 °F 30.31 in West 7.0 mph 15.0 mph 69% 0.00 in
02:54 9.2 °F 1.1 °F 30.31 in West 7.0 mph 14.0 mph 69% 0.00 in
02:59 9.2 °F 1.1 °F 30.31 in West 7.0 mph 14.0 mph 69% 0.00 in
03:04 9.2 °F 1.4 °F 30.31 in West 6.0 mph 14.0 mph 70% 0.00 in
03:09 9.2 °F 1.4 °F 30.31 in West 13.0 mph 13.0 mph 70% 0.00 in
03:14 9.2 °F 1.4 °F 30.31 in SSW 5.0 mph 13.0 mph 70% 0.00 in
03:19 9.1 °F 1.0 °F 30.32 in West 6.0 mph 13.0 mph 69% 0.00 in
03:24 9.1 °F 1.3 °F 30.32 in West 6.0 mph 10.0 mph 70% 0.00 in
03:29 9.1 °F 1.3 °F 30.32 in West 4.0 mph 9.0 mph 70% 0.00 in
03:34 9.0 °F 1.2 °F 30.32 in WSW 4.0 mph 13.0 mph 70% 0.00 in
03:39 8.9 °F 1.1 °F 30.32 in WNW 10.0 mph 12.0 mph 70% 0.00 in
03:44 8.9 °F 1.1 °F 30.32 in West 5.0 mph 14.0 mph 70% 0.00 in
03:49 8.9 °F 1.1 °F 30.32 in West 6.0 mph 14.0 mph 70% 0.00 in
03:54 8.9 °F 1.1 °F 30.32 in West 6.0 mph 15.0 mph 70% 0.00 in
03:59 8.9 °F 0.8 °F 30.32 in West 6.0 mph 15.0 mph 69% 0.00 in
04:00 8.9 °F 0.8 °F 30.32 in West 4.0 mph 12.0 mph 69% 0.00 in
04:09 9.0 °F 0.9 °F 30.32 in West 9.0 mph 16.0 mph 69% 0.00 in
04:14 9.1 °F 1.0 °F 30.32 in West 8.0 mph 18.0 mph 69% 0.00 in
04:19 9.2 °F 0.8 °F 30.32 in West 12.0 mph 20.0 mph 68% 0.00 in
04:24 9.2 °F 0.8 °F 30.32 in NW 6.0 mph 19.0 mph 68% 0.00 in
04:29 9.2 °F 0.8 °F 30.31 in NW 7.0 mph 15.0 mph 68% 0.00 in
04:34 9.1 °F 1.0 °F 30.31 in West 13.0 mph 21.0 mph 69% 0.00 in
04:39 9.2 °F 1.1 °F 30.32 in WNW 9.0 mph 20.0 mph 69% 0.00 in
04:44 9.1 °F 1.0 °F 30.31 in WNW 10.0 mph 22.0 mph 69% 0.00 in
04:49 9.2 °F 1.1 °F 30.32 in West 5.0 mph 18.0 mph 69% 0.00 in
04:59 9.1 °F 1.0 °F 30.32 in WNW 10.0 mph 20.0 mph 69% 0.00 in
05:04 9.1 °F 1.0 °F 30.32 in West 9.0 mph 20.0 mph 69% 0.00 in
05:09 9.1 °F 1.0 °F 30.32 in West 9.0 mph 20.0 mph 69% 0.00 in
05:14 9.1 °F 0.7 °F 30.32 in West 9.0 mph 17.0 mph 68% 0.00 in
05:19 9.1 °F 1.0 °F 30.32 in West 9.0 mph 18.0 mph 69% 0.00 in
05:24 9.1 °F 1.0 °F 30.32 in West 8.0 mph 16.0 mph 69% 0.00 in
05:25 9.1 °F 1.0 °F 30.32 in West 9.0 mph 18.0 mph 69% 0.00 in
05:34 9.2 °F 1.1 °F 30.33 in West 8.0 mph 20.0 mph 69% 0.00 in
05:39 9.2 °F 0.8 °F 30.33 in West 8.0 mph 16.0 mph 68% 0.00 in
05:44 9.2 °F 0.8 °F 30.33 in West 9.0 mph 16.0 mph 68% 0.00 in
05:49 9.1 °F 1.0 °F 30.33 in NW 6.0 mph 12.0 mph 69% 0.00 in
05:54 9.0 °F 0.9 °F 30.34 in West 6.0 mph 12.0 mph 69% 0.00 in
05:59 8.9 °F 0.8 °F 30.34 in WNW 3.0 mph 11.0 mph 69% 0.00 in
06:04 8.8 °F 1.0 °F 30.34 in West 7.0 mph 12.0 mph 70% 0.00 in
06:09 8.8 °F 0.7 °F 30.34 in West 7.0 mph 15.0 mph 69% 0.00 in
06:14 8.8 °F 0.7 °F 30.34 in WNW 8.0 mph 15.0 mph 69% 0.00 in
06:19 8.9 °F 0.5 °F 30.34 in West 11.0 mph 19.0 mph 68% 0.00 in
06:24 9.0 °F 0.6 °F 30.35 in West 15.0 mph 18.0 mph 68% 0.00 in
06:29 9.2 °F 0.5 °F 30.35 in West 16.0 mph 17.0 mph 67% 0.00 in
06:34 9.2 °F 0.5 °F 30.35 in West 6.0 mph 16.0 mph 67% 0.00 in
06:39 9.2 °F 0.5 °F 30.35 in West 8.0 mph 16.0 mph 67% 0.00 in
06:44 9.1 °F 0.4 °F 30.35 in West 7.0 mph 14.0 mph 67% 0.00 in
06:49 9.0 °F 0.3 °F 30.35 in West 6.0 mph 15.0 mph 67% 0.00 in
06:54 9.0 °F 0.3 °F 30.35 in West 7.0 mph 15.0 mph 67% 0.00 in
06:59 9.1 °F 0.7 °F 30.35 in West 7.0 mph 18.0 mph 68% 0.00 in
07:04 9.1 °F 0.7 °F 30.36 in West 6.0 mph 18.0 mph 68% 0.00 in
07:09 9.1 °F 0.7 °F 30.36 in West 8.0 mph 12.0 mph 68% 0.00 in
07:14 9.1 °F 0.7 °F 30.36 in West 6.0 mph 12.0 mph 68% 0.00 in
07:19 9.1 °F 0.7 °F 30.37 in WSW 4.0 mph 12.0 mph 68% 0.00 in
07:24 9.0 °F 0.6 °F 30.36 in SW 2.0 mph 13.0 mph 68% 0.00 in
07:29 8.9 °F 0.5 °F 30.37 in WNW 4.0 mph 16.0 mph 68% 0.00 in
07:34 8.8 °F 0.4 °F 30.37 in West 7.0 mph 12.0 mph 68% 0.00 in
07:44 8.5 °F 0.1 °F 30.37 in West 5.0 mph 10.0 mph 68% 0.00 in
07:49 8.5 °F 0.4 °F 30.38 in West 6.0 mph 15.0 mph 69% 0.00 in
07:54 8.5 °F 0.1 °F 30.38 in West 7.0 mph 15.0 mph 68% 0.00 in
07:59 8.5 °F 0.1 °F 30.38 in West 8.0 mph 16.0 mph 68% 0.00 in
08:04 8.6 °F -0.1 °F 30.38 in West 10.0 mph 19.0 mph 67% 0.00 in
08:09 8.6 °F -0.1 °F 30.38 in WNW 7.0 mph 15.0 mph 67% 0.00 in
08:14 8.6 °F -0.1 °F 30.38 in West 15.0 mph 18.0 mph 67% 0.00 in
08:19 8.5 °F -0.2 °F 30.39 in West 10.0 mph 19.0 mph 67% 0.00 in
08:24 8.5 °F 0.1 °F 30.39 in West 9.0 mph 19.0 mph 68% 0.00 in
08:29 8.5 °F 0.1 °F 30.39 in West 10.0 mph 20.0 mph 68% 0.00 in
08:34 8.6 °F -0.1 °F 30.39 in West 10.0 mph 20.0 mph 67% 0.00 in
08:39 8.6 °F -0.1 °F 30.39 in WNW 13.0 mph 22.0 mph 67% 0.00 in
08:44 8.6 °F 0.2 °F 30.39 in WNW 10.0 mph 22.0 mph 68% 0.00 in
08:49 8.5 °F 0.1 °F 30.39 in WNW 9.0 mph 19.0 mph 68% 0.00 in
08:54 8.6 °F 0.2 °F 30.40 in WNW 9.0 mph 19.0 mph 68% 0.00 in
08:59 8.7 °F 0.3 °F 30.40 in WNW 9.0 mph 15.0 mph 68% 0.00 in
09:04 8.9 °F 0.5 °F 30.40 in WNW 15.0 mph 16.0 mph 68% 0.00 in
09:09 9.1 °F 0.7 °F 30.40 in West 10.0 mph 19.0 mph 68% 0.00 in
09:14 9.4 °F 0.6 °F 30.40 in WSW 10.0 mph 17.0 mph 67% 0.00 in
09:19 9.6 °F 0.8 °F 30.41 in West 10.0 mph 17.0 mph 67% 0.00 in
09:24 9.8 °F 1.0 °F 30.41 in West 8.0 mph 16.0 mph 67% 0.00 in
09:29 10.1 °F 1.3 °F 30.42 in West 8.0 mph 14.0 mph 67% 0.00 in
09:34 10.1 °F 1.0 °F 30.42 in West 8.0 mph 15.0 mph 66% 0.00 in
09:39 10.5 °F 1.4 °F 30.42 in West 8.0 mph 16.0 mph 66% 0.00 in
09:44 10.6 °F 1.5 °F 30.42 in West 8.0 mph 18.0 mph 66% 0.00 in
09:49 10.8 °F 1.7 °F 30.43 in West 8.0 mph 18.0 mph 66% 0.00 in
09:54 10.9 °F 1.4 °F 30.43 in West 7.0 mph 16.0 mph 65% 0.00 in
10:04 11.0 °F 1.2 °F 30.44 in West 8.0 mph 18.0 mph 64% 0.00 in
10:09 11.1 °F 1.6 °F 30.44 in West 7.0 mph 16.0 mph 65% 0.00 in
10:14 11.3 °F 1.5 °F 30.44 in West 8.0 mph 13.0 mph 64% 0.00 in
10:15 11.3 °F 1.5 °F 30.44 in West 8.0 mph 16.0 mph 64% 0.00 in
10:24 11.4 °F 1.2 °F 30.44 in West 9.0 mph 18.0 mph 63% 0.00 in
10:29 11.6 °F 1.4 °F 30.44 in WSW 3.0 mph 16.0 mph 63% 0.00 in
10:34 11.9 °F 1.7 °F 30.44 in West 8.0 mph 16.0 mph 63% 0.00 in
10:39 12.3 °F 2.1 °F 30.44 in West 7.0 mph 18.0 mph 63% 0.00 in
10:44 12.3 °F 1.4 °F 30.45 in West 9.0 mph 18.0 mph 61% 0.00 in
10:54 12.7 °F 1.8 °F 30.44 in West 8.0 mph 17.0 mph 61% 0.00 in
10:59 12.5 °F 1.2 °F 30.44 in WSW 9.0 mph 21.0 mph 60% 0.00 in
11:04 12.4 °F 1.1 °F 30.44 in WSW 13.0 mph 22.0 mph 60% 0.00 in
11:09 12.6 °F 1.7 °F 30.44 in West 9.0 mph 22.0 mph 61% 0.00 in
11:14 12.7 °F 1.1 °F 30.44 in West 10.0 mph 17.0 mph 59% 0.00 in
11:19 13.0 °F 1.3 °F 30.44 in WNW 5.0 mph 14.0 mph 59% 0.00 in
11:24 13.3 °F 1.6 °F 30.44 in WNW 5.0 mph 14.0 mph 59% 0.00 in
11:29 13.3 °F 1.6 °F 30.44 in WNW 8.0 mph 16.0 mph 59% 0.00 in
11:34 12.9 °F 0.5 °F 30.44 in West 13.0 mph 22.0 mph 57% 0.00 in
11:39 12.6 °F 1.0 °F 30.44 in SW 8.0 mph 19.0 mph 59% 0.00 in
11:44 12.5 °F 0.9 °F 30.44 in West 10.0 mph 19.0 mph 59% 0.00 in
11:49 12.7 °F 1.1 °F 30.44 in West 9.0 mph 18.0 mph 59% 0.00 in
11:59 13.5 °F 1.8 °F 30.43 in West 8.0 mph 15.0 mph 59% 0.00 in
12:04 13.7 °F 1.3 °F 30.43 in WNW 7.0 mph 22.0 mph 57% 0.00 in
12:09 13.2 °F 2.3 °F 30.43 in West 11.0 mph 26.0 mph 61% 0.00 in
12:14 12.8 °F 3.2 °F 30.43 in West 14.0 mph 23.0 mph 65% 0.00 in
12:19 13.1 °F 4.5 °F 30.43 in WSW 9.0 mph 14.0 mph 68% 0.00 in
12:24 13.1 °F 4.2 °F 30.44 in West 13.0 mph 22.0 mph 67% 0.00 in
12:29 13.1 °F 4.2 °F 30.44 in SSW 7.0 mph 21.0 mph 67% 0.00 in
12:34 13.1 °F 4.2 °F 30.43 in WSW 14.0 mph 21.0 mph 67% 0.00 in
12:39 13.0 °F 4.1 °F 30.43 in WNW 13.0 mph 21.0 mph 67% 0.00 in
12:44 13.0 °F 4.1 °F 30.43 in West 11.0 mph 22.0 mph 67% 0.00 in
12:49 13.3 °F 4.4 °F 30.43 in West 10.0 mph 22.0 mph 67% 0.00 in
12:59 13.0 °F 3.8 °F 30.43 in West 10.0 mph 18.0 mph 66% 0.00 in
13:04 13.0 °F 3.8 °F 30.43 in West 11.0 mph 20.0 mph 66% 0.00 in
13:09 13.1 °F 3.9 °F 30.43 in West 12.0 mph 21.0 mph 66% 0.00 in
13:14 13.6 °F 4.3 °F 30.43 in WSW 12.0 mph 21.0 mph 66% 0.00 in
13:19 13.7 °F 4.4 °F 30.42 in WSW 13.0 mph 20.0 mph 66% 0.00 in
13:24 13.7 °F 4.4 °F 30.42 in West 9.0 mph 20.0 mph 66% 0.00 in
13:29 13.7 °F 3.8 °F 30.43 in West 9.0 mph 20.0 mph 64% 0.00 in
13:34 13.5 °F 3.6 °F 30.42 in West 15.0 mph 23.0 mph 64% 0.00 in
13:39 13.5 °F 3.6 °F 30.43 in WNW 10.0 mph 19.0 mph 64% 0.00 in
13:44 13.7 °F 3.8 °F 30.42 in West 12.0 mph 16.0 mph 64% 0.00 in
13:49 13.7 °F 3.4 °F 30.42 in West 6.0 mph 14.0 mph 63% 0.00 in
13:54 13.4 °F 3.1 °F 30.43 in West 9.0 mph 17.0 mph 63% 0.00 in
13:59 13.0 °F 2.4 °F 30.42 in West 9.0 mph 19.0 mph 62% 0.00 in
14:04 12.5 °F 1.9 °F 30.43 in West 9.0 mph 19.0 mph 62% 0.00 in
14:09 12.3 °F 1.7 °F 30.43 in West 10.0 mph 18.0 mph 62% 0.00 in
14:14 12.6 °F 2.0 °F 30.43 in West 8.0 mph 18.0 mph 62% 0.00 in
14:19 12.9 °F 2.0 °F 30.44 in West 7.0 mph 18.0 mph 61% 0.00 in
14:24 13.0 °F 1.3 °F 30.44 in WSW 9.0 mph 19.0 mph 59% 0.00 in
14:29 12.8 °F 1.2 °F 30.44 in WSW 9.0 mph 18.0 mph 59% 0.00 in
14:34 12.8 °F 1.2 °F 30.44 in West 9.0 mph 18.0 mph 59% 0.00 in
14:39 12.5 °F 0.5 °F 30.44 in West 9.0 mph 24.0 mph 58% 0.00 in
14:44 12.1 °F 0.1 °F 30.44 in West 5.0 mph 19.0 mph 58% 0.00 in
14:49 11.8 °F -0.2 °F 30.45 in West 14.0 mph 16.0 mph 58% 0.00 in
14:54 11.6 °F -0.3 °F 30.45 in West 9.0 mph 14.0 mph 58% 0.00 in
14:59 11.6 °F -0.3 °F 30.45 in West 7.0 mph 16.0 mph 58% 0.00 in
15:04 11.5 °F -0.4 °F 30.45 in West 17.0 mph 18.0 mph 58% 0.00 in
15:09 11.3 °F -1.0 °F 30.46 in WNW 11.0 mph 17.0 mph 57% 0.00 in
15:14 11.1 °F -1.2 °F 30.46 in West 8.0 mph 18.0 mph 57% 0.00 in
15:19 11.0 °F -1.3 °F 30.46 in West 8.0 mph 17.0 mph 57% 0.00 in
15:24 10.9 °F -1.4 °F 30.46 in West 9.0 mph 17.0 mph 57% 0.00 in
15:29 10.4 °F -1.8 °F 30.46 in West 9.0 mph 21.0 mph 57% 0.00 in
15:34 10.0 °F -2.2 °F 30.47 in West 4.0 mph 16.0 mph 57% 0.00 in
15:39 9.8 °F -2.4 °F 30.46 in West 9.0 mph 17.0 mph 57% 0.00 in
15:44 9.6 °F -1.9 °F 30.47 in WNW 10.0 mph 14.0 mph 59% 0.00 in
15:49 9.6 °F -1.9 °F 30.47 in WSW 8.0 mph 16.0 mph 59% 0.00 in
15:54 9.5 °F -2.0 °F 30.47 in WNW 9.0 mph 16.0 mph 59% 0.00 in
15:59 9.2 °F -2.2 °F 30.47 in WSW 8.0 mph 18.0 mph 59% 0.00 in
16:04 9.0 °F -2.1 °F 30.47 in SW 8.0 mph 11.0 mph 60% 0.00 in
16:09 8.8 °F -2.6 °F 30.47 in WSW 5.0 mph 16.0 mph 59% 0.00 in
16:14 8.7 °F -2.4 °F 30.47 in West 8.0 mph 16.0 mph 60% 0.00 in
16:19 8.5 °F -2.6 °F 30.47 in West 6.0 mph 11.0 mph 60% 0.00 in
16:24 8.4 °F -2.3 °F 30.47 in West 7.0 mph 12.0 mph 61% 0.00 in
16:29 8.3 °F -2.4 °F 30.47 in West 7.0 mph 13.0 mph 61% 0.00 in
16:34 8.2 °F -2.2 °F 30.47 in West 6.0 mph 15.0 mph 62% 0.00 in
16:39 8.0 °F -2.3 °F 30.47 in WNW 8.0 mph 15.0 mph 62% 0.00 in
16:44 7.8 °F -2.5 °F 30.47 in West 7.0 mph 15.0 mph 62% 0.00 in
16:49 7.7 °F -2.3 °F 30.47 in West 13.0 mph 15.0 mph 63% 0.00 in
16:54 7.5 °F -2.5 °F 30.47 in NNW 6.0 mph 13.0 mph 63% 0.00 in
16:59 7.3 °F -2.7 °F 30.47 in WNW 10.0 mph 15.0 mph 63% 0.00 in
17:04 7.2 °F -2.8 °F 30.48 in West 7.0 mph 12.0 mph 63% 0.00 in
17:09 7.1 °F -2.9 °F 30.48 in West 4.0 mph 13.0 mph 63% 0.00 in
17:14 7.0 °F -2.6 °F 30.48 in West 5.0 mph 15.0 mph 64% 0.00 in
17:19 6.8 °F -2.8 °F 30.48 in West 8.0 mph 16.0 mph 64% 0.00 in
17:24 6.7 °F -2.9 °F 30.48 in WNW 8.0 mph 16.0 mph 64% 0.00 in
17:29 6.7 °F -2.6 °F 30.48 in West 8.0 mph 14.0 mph 65% 0.00 in
17:34 6.6 °F -2.7 °F 30.49 in West 8.0 mph 14.0 mph 65% 0.00 in
17:39 6.5 °F -2.8 °F 30.49 in West 7.0 mph 13.0 mph 65% 0.00 in
17:44 6.5 °F -2.8 °F 30.49 in WNW 8.0 mph 11.0 mph 65% 0.00 in
17:49 6.4 °F -2.9 °F 30.48 in WSW 7.0 mph 14.0 mph 65% 0.00 in
17:54 6.4 °F -2.9 °F 30.49 in West 7.0 mph 14.0 mph 65% 0.00 in
17:59 6.4 °F -2.5 °F 30.49 in West 7.0 mph 18.0 mph 66% 0.00 in
18:04 6.3 °F -2.6 °F 30.49 in West 5.0 mph 16.0 mph 66% 0.00 in
18:09 6.3 °F -2.6 °F 30.49 in WNW 7.0 mph 14.0 mph 66% 0.00 in
18:14 6.2 °F -2.7 °F 30.49 in West 3.0 mph 13.0 mph 66% 0.00 in
18:19 6.1 °F -2.8 °F 30.49 in NW 5.0 mph 17.0 mph 66% 0.00 in
18:24 6.0 °F -2.9 °F 30.49 in WNW 7.0 mph 17.0 mph 66% 0.00 in
18:29 6.0 °F -2.9 °F 30.49 in West 7.0 mph 15.0 mph 66% 0.00 in
18:34 5.9 °F -2.7 °F 30.49 in WNW 7.0 mph 15.0 mph 67% 0.00 in
18:39 5.9 °F -2.7 °F 30.49 in WNW 8.0 mph 14.0 mph 67% 0.00 in
18:44 5.9 °F -2.7 °F 30.49 in WNW 8.0 mph 14.0 mph 67% 0.00 in
18:49 5.9 °F -2.7 °F 30.50 in WNW 8.0 mph 13.0 mph 67% 0.00 in
18:54 5.9 °F -2.7 °F 30.50 in West 9.0 mph 13.0 mph 67% 0.00 in
18:59 5.8 °F -2.8 °F 30.50 in WNW 9.0 mph 16.0 mph 67% 0.00 in
19:04 5.9 °F -2.7 °F 30.50 in NW 11.0 mph 16.0 mph 67% 0.00 in
19:09 5.8 °F -2.8 °F 30.50 in NW 5.0 mph 17.0 mph 67% 0.00 in
19:14 5.8 °F -2.8 °F 30.50 in WNW 8.0 mph 15.0 mph 67% 0.00 in
19:19 5.8 °F -2.8 °F 30.50 in West 8.0 mph 16.0 mph 67% 0.00 in
19:24 5.7 °F -2.9 °F 30.50 in NW 3.0 mph 14.0 mph 67% 0.00 in
19:29 5.7 °F -2.9 °F 30.49 in WNW 7.0 mph 15.0 mph 67% 0.00 in
19:34 5.8 °F -2.8 °F 30.49 in WNW 9.0 mph 17.0 mph 67% 0.00 in
19:39 5.9 °F -2.7 °F 30.49 in WNW 9.0 mph 17.0 mph 67% 0.00 in
19:44 5.9 °F -2.7 °F 30.49 in WNW 8.0 mph 14.0 mph 67% 0.00 in
19:49 5.9 °F -3.0 °F 30.49 in WNW 8.0 mph 16.0 mph 66% 0.00 in
19:54 5.9 °F -3.0 °F 30.49 in WNW 8.0 mph 16.0 mph 66% 0.00 in
19:59 5.9 °F -3.0 °F 30.49 in West 7.0 mph 15.0 mph 66% 0.00 in
20:04 6.0 °F -2.6 °F 30.50 in WSW 4.0 mph 12.0 mph 67% 0.00 in
20:09 6.0 °F -2.6 °F 30.50 in SW 5.0 mph 11.0 mph 67% 0.00 in
20:14 6.0 °F -2.6 °F 30.49 in West 6.0 mph 13.0 mph 67% 0.00 in
20:19 6.0 °F -2.9 °F 30.49 in West 6.0 mph 15.0 mph 66% 0.00 in
20:24 5.9 °F -3.0 °F 30.49 in WNW 4.0 mph 14.0 mph 66% 0.00 in
20:29 5.9 °F -3.0 °F 30.49 in West 7.0 mph 14.0 mph 66% 0.00 in
20:39 5.8 °F -2.8 °F 30.49 in West 5.0 mph 12.0 mph 67% 0.00 in
20:44 5.8 °F -2.8 °F 30.49 in West 5.0 mph 10.0 mph 67% 0.00 in
20:49 5.7 °F -2.9 °F 30.49 in WNW 4.0 mph 10.0 mph 67% 0.00 in
20:54 5.7 °F -2.6 °F 30.49 in WNW 5.0 mph 11.0 mph 68% 0.00 in
20:59 5.7 °F -2.6 °F 30.49 in WNW 6.0 mph 12.0 mph 68% 0.00 in
21:04 5.7 °F -2.6 °F 30.49 in WNW 7.0 mph 13.0 mph 68% 0.00 in
21:09 5.8 °F -2.5 °F 30.49 in NW 8.0 mph 16.0 mph 68% 0.00 in
21:14 5.9 °F -2.4 °F 30.49 in West 8.0 mph 16.0 mph 68% 0.00 in
21:19 5.8 °F -2.5 °F 30.49 in NW 6.0 mph 12.0 mph 68% 0.00 in
21:24 5.8 °F -2.5 °F 30.49 in NW 4.0 mph 11.0 mph 68% 0.00 in
21:29 5.7 °F -2.6 °F 30.49 in West 4.0 mph 9.0 mph 68% 0.00 in
21:34 5.8 °F -2.5 °F 30.50 in NW 4.0 mph 7.0 mph 68% 0.00 in
21:39 5.7 °F -2.6 °F 30.50 in West 4.0 mph 9.0 mph 68% 0.00 in
21:44 5.7 °F -2.3 °F 30.50 in SW 5.0 mph 12.0 mph 69% 0.00 in
21:49 5.8 °F -2.2 °F 30.50 in West 5.0 mph 12.0 mph 69% 0.00 in
21:54 5.9 °F -2.1 °F 30.50 in WNW 8.0 mph 8.0 mph 69% 0.00 in
21:59 5.8 °F -2.2 °F 30.50 in West 4.0 mph 11.0 mph 69% 0.00 in
22:04 5.8 °F -2.5 °F 30.50 in West 5.0 mph 11.0 mph 68% 0.00 in
22:09 5.6 °F -2.7 °F 30.50 in West 5.0 mph 10.0 mph 68% 0.00 in
22:24 5.4 °F -2.9 °F 30.51 in West 2.0 mph 8.0 mph 68% 0.00 in
22:29 5.2 °F -3.1 °F 30.51 in West 5.0 mph 8.0 mph 68% 0.00 in
22:34 5.1 °F -3.2 °F 30.51 in West 5.0 mph 9.0 mph 68% 0.00 in
22:39 5.1 °F -2.9 °F 30.51 in West 5.0 mph 10.0 mph 69% 0.00 in
22:44 5.1 °F -2.9 °F 30.50 in WNW 8.0 mph 9.0 mph 69% 0.00 in
22:49 5.1 °F -2.9 °F 30.50 in West 6.0 mph 10.0 mph 69% 0.00 in
22:54 5.1 °F -2.9 °F 30.51 in West 5.0 mph 10.0 mph 69% 0.00 in
22:59 5.2 °F -2.8 °F 30.50 in West 5.0 mph 9.0 mph 69% 0.00 in
23:04 5.3 °F -2.7 °F 30.50 in WNW 5.0 mph 10.0 mph 69% 0.00 in
23:09 5.4 °F -2.3 °F 30.50 in WNW 4.0 mph 10.0 mph 70% 0.00 in
23:14 5.6 °F -2.1 °F 30.50 in WNW 5.0 mph 13.0 mph 70% 0.00 in
23:19 5.9 °F -1.8 °F 30.50 in WNW 6.0 mph 18.0 mph 70% 0.00 in
23:24 6.1 °F -1.6 °F 30.50 in WNW 7.0 mph 18.0 mph 70% 0.00 in
23:29 6.4 °F -1.3 °F 30.50 in WNW 6.0 mph 13.0 mph 70% 0.00 in
23:34 6.5 °F -1.2 °F 30.50 in WNW 5.0 mph 13.0 mph 70% 0.00 in
23:39 6.7 °F -1.0 °F 30.50 in West 2.0 mph 10.0 mph 70% 0.00 in
23:44 6.9 °F -0.8 °F 30.50 in West 4.0 mph 11.0 mph 70% 0.00 in
23:49 7.0 °F -0.7 °F 30.50 in WSW 4.0 mph 8.0 mph 70% 0.00 in
23:54 7.1 °F -0.6 °F 30.50 in WNW 5.0 mph 12.0 mph 70% 0.00 in
23:59 7.2 °F -0.2 °F 30.50 in WNW 5.0 mph 12.0 mph 71% 0.00 in
Buffalo, New York, USA
Compliments of Weather Underground - 2.25 mb